This demonstration page uses our WeatherBlox Daily Observations layout. Learn more.

40.92945, -100.16068

Hourly Observations for December 15, 2018

Temp ( °F °C ) Dew Point ( °F °C ) Humidity (%) Winds ( mph kmh ) Pressure ( in mb ) Visibility ( mi km ) Precip ( " mm )
12:15 am 00:15 Clear 25 -4 23 -5.2 91 91 NNW 3 6 30.33 1027 10 16.09344 0 0
12:35 am 00:35 Clear 25 -3.8 23 -5 91 91 Calm 30.27 1025 10 16.09344 0 0
12:55 am 00:55 Clear 25 -3.7 23 -4.8 92 92 N 3 6 30.27 1025 10 16.09344 0 0
1:15 am 01:15 Clear 25 -4 23 -5.1 92 92 Calm 30.27 1025 10 16.09344 0 0
1:35 am 01:35 Clear 24 -4.2 22 -5.5 91 91 Calm 30.3 1026 10 16.09344 0 0
1:55 am 01:55 Clear 24 -4.2 22 -5.5 91 91 Calm 30.24 1024 10 16.09344 0 0
2:15 am 02:15 Clear 25 -4.1 22 -5.3 91 91 WNW 5 7 30.3 1026 10 16.09344 0 0
2:35 am 02:35 Clear 24 -4.3 22 -5.5 91 91 WNW 5 7 30.24 1024 10 16.09344 0 0
2:55 am 02:55 Clear 25 -4 22 -5.4 90 90 WNW 5 7 30.24 1024 10 16.09344 0 0
3:15 am 03:15 Clear 24 -4.5 22 -5.7 91 91 NW 3 6 30.3 1026 10 16.09344 0 0
3:35 am 03:35 Clear 24 -4.7 21 -6.1 90 90 Calm 30.27 1025 10 16.09344 0 0
3:55 am 03:55 Clear 24 -4.6 22 -5.8 91 91 Calm 30.27 1025 10 16.09344 0 0
4:15 am 04:15 Clear 24 -4.4 22 -5.7 91 91 Calm 30.27 1025 10 16.09344 0 0
4:35 am 04:35 Clear 23 -5.2 20 -6.6 90 90 Calm 30.27 1025 10 16.09344 0 0
4:55 am 04:55 Clear 23 -4.9 21 -6.2 91 91 SE 3 6 30.27 1025 10 16.09344 0 0
5:15 am 05:15 Clear 24 -4.2 22 -5.3 92 92 SSE 3 6 30.24 1024 10 16.09344 0 0
5:35 am 05:35 Clear 24 -4.3 22 -5.5 91 91 ESE 5 7 30.24 1024 10 16.09344 0 0
5:55 am 05:55 Clear 25 -4 22 -5.3 91 91 SE 3 6 30.24 1024 10 16.09344 0 0
6:15 am 06:15 Clear 24 -4.2 22 -5.5 91 91 SE 3 6 30.24 1024 10 16.09344 0 0
6:35 am 06:35 Clear 24 -4.2 22 -5.5 91 91 ESE 3 6 30.24 1024 10 16.09344 0 0
6:55 am 06:55 Clear 24 -4.3 22 -5.6 91 91 SE 6 9 30.24 1024 10 16.09344 0 0
7:15 am 07:15 Clear 26 -3.5 23 -4.9 90 90 ESE 5 7 30.21 1023 10 16.09344 0 0
7:35 am 07:35 Clear 25 -3.7 22 -5.3 89 89 SE 3 6 30.21 1023 10 16.09344 0 0
7:55 am 07:55 Clear 25 -3.7 22 -5.5 87 87 Calm 30.21 1023 10 16.09344 0 0
8:15 am 08:15 Sunny 25 -4 21 -5.9 87 87 Calm 30.21 1023 10 16.09344 0 0
8:35 am 08:35 Sunny 26 -3.5 22 -5.3 88 88 S 5 7 30.21 1023 10 16.09344 0 0
8:55 am 08:55 Sunny 30 -1.3 26 -3.4 86 86 S 8 13 30.18 1022 10 16.09344 0 0
9:15 am 09:15 Sunny 32 0 27 -2.8 82 82 S 8 13 30.18 1022 10 16.09344 0 0
9:35 am 09:35 Sunny 35 1.7 28 -2.2 76 76 SSW 5 7 30.15 1021 10 16.09344 0 0
9:55 am 09:55 Sunny 38 3.2 28 -2.1 69 69 S 3 6 30.15 1021 10 16.09344 0 0
10:15 am 10:15 Sunny 40 4.5 27 -2.8 59 59 Calm 30.12 1020 10 16.09344 0 0
10:35 am 10:35 Sunny 42 5.8 27 -2.7 55 55 SW 10 17 30.15 1021 10 16.09344 0 0
10:55 am 10:55 Sunny 43 6.2 26 -3.2 51 51 SSW 8 13 30.15 1021 10 16.09344 0 0
11:15 am 11:15 Sunny 44 6.7 26 -3.5 49 49 SSW 6 9 30.12 1020 10 16.09344 0 0
11:35 am 11:35 Sunny 44 6.8 26 -3.5 48 48 SSW 7 11 30.12 1020 10 16.09344 0 0
11:55 am 11:55 Sunny 45 7 26 -3.5 48 48 SW 8 13 30.12 1020 10 16.09344 0 0
12:15 pm 12:15 Sunny 44 6.7 25 -3.8 47 47 SW 8 13 30.09 1019 10 16.09344 0 0
12:35 pm 12:35 Sunny 45 7 26 -3.1 49 49 SSW 7 11 30.09 1019 10 16.09344 0 0
12:55 pm 12:55 Sunny 46 8 27 -2.6 47 47 SSW 10 17 30.06 1018 10 16.09344 0 0
1:15 pm 13:15 Sunny 46 7.8 28 -2.4 49 49 SSW 10 17 30.06 1018 10 16.09344 0 0
1:35 pm 13:35 Sunny 47 8.1 27 -2.6 47 47 S 9 15 30.06 1018 10 16.09344 0 0
1:55 pm 13:55 Sunny 47 8.3 28 -2.4 47 47 SW 8 13 30.06 1018 10 16.09344 0 0
2:15 pm 14:15 Sunny 46 7.6 29 -1.8 52 52 SW 9 15 30.06 1018 10 16.09344 0 0
2:35 pm 14:35 Sunny 46 7.6 30 -1.3 54 54 SW 7 11 30.06 1018 10 16.09344 0 0
2:55 pm 14:55 Sunny 46 7.8 30 -1.2 53 53 SW 5 7 30.06 1018 10 16.09344 0 0
3:15 pm 15:15 Sunny 46 7.6 30 -1.3 54 54 SSW 7 11 30.06 1018 10 16.09344 0 0
3:35 pm 15:35 Sunny 44 6.8 30 -1.3 57 57 SW 3 6 30.09 1019 10 16.09344 0 0
3:55 pm 15:55 Sunny 43 6.3 29 -1.5 58 58 SW 7 11 30.09 1019 10 16.09344 0 0
4:15 pm 16:15 Sunny 42 5.5 30 -1.3 62 62 SW 5 7 30.09 1019 10 16.09344 0 0
4:35 pm 16:35 Sunny 41 5.2 29 -1.5 62 62 SW 3 6 30.09 1019 10 16.09344 0 0
4:55 pm 16:55 Sunny 42 5.3 28 -2 60 60 W 3 6 30.09 1019 10 16.09344 0 0
5:15 pm 17:15 Clear 39 4 28 -2.3 64 64 WSW 3 6 30.09 1019 10 16.09344 0 0
5:35 pm 17:35 Clear 38 3.3 28 -2.3 67 67 Calm 30.12 1020 10 16.09344 0 0
5:55 pm 17:55 Clear 39 4 28 -2.2 64 64 Calm 30.09 1019 10 16.09344 0 0
6:15 pm 18:15 Clear 37 3 28 -2.3 68 68 Calm 30.15 1021 10 16.09344 0 0
6:35 pm 18:35 Clear 36 2.2 28 -2.1 74 74 S 5 7 30.12 1020 10 16.09344 0 0
6:55 pm 18:55 Clear 35 1.9 29 -1.7 77 77 N 6 9 30.15 1021 10 16.09344 0 0
7:15 pm 19:15 Clear 34 1 28 -2 81 81 Calm 30.18 1022 10 16.09344 0 0
7:35 pm 19:35 Clear 33 0.4 28 -2.1 84 84 WNW 5 7 30.21 1023 10 16.09344 0 0
7:55 pm 19:55 Clear 32 0 28 -2.1 86 86 NNW 3 6 30.21 1023 10 16.09344 0 0
8:15 pm 20:15 Clear 32 0 28 -2.2 85 85 NNW 3 6 30.21 1023 10 16.09344 0 0
8:35 pm 20:35 Clear 32 0.1 28 -2.5 83 83 NW 6 9 30.21 1023 10 16.09344 0 0
8:55 pm 20:55 Clear 31 -0.6 27 -3 84 84 WNW 3 6 30.24 1024 10 16.09344 0 0
9:15 pm 21:15 Clear 31 -0.8 27 -2.7 87 87 WNW 7 11 30.24 1024 10 16.09344 0 0
9:35 pm 21:35 Clear 30 -1.1 26 -3.1 86 86 WNW 8 13 30.24 1024 10 16.09344 0 0
9:55 pm 21:55 Clear 31 -0.7 26 -3.1 84 84 WNW 7 11 30.24 1024 10 16.09344 0 0
10:15 pm 22:15 Clear 30 -0.9 27 -2.9 86 86 WNW 8 13 30.24 1024 10 16.09344 0 0
10:35 pm 22:35 Clear 30 -0.9 26 -3.3 84 84 WNW 7 11 30.24 1024 10 16.09344 0 0
10:55 pm 22:55 Clear 30 -0.9 26 -3.5 83 83 WNW 7 11 30.3 1026 10 16.09344 0 0
11:15 pm 23:15 Clear 30 -1 26 -3.5 83 83 WNW 7 11 30.3 1026 10 16.09344 0 0
11:35 pm 23:35 Clear 28 -2 25 -3.9 87 87 WNW 7 11 30.3 1026 10 16.09344 0 0
11:55 pm 23:55 Clear 29 -1.5 26 -3.4 87 87 W 8 13 30.3 1026 10 16.09344 0 0

Powered by AerisWeather